Flag for Switzerland Weather past 2 weeks in Versoix, Geneva, Switzerland

Now
51 °F

Cool.


Feels Like: 51 °F
Forecast: 49 / 73 °F
Wind: 1 mph from North

Location: Geneve-Cointrin

Current Time: May 29, 2015 at 7:03:33 AM

Latest Report: May 29, 2015 at 6:00 AM


Visibility: N/A

Pressure: 30.00 "Hg

Humidity: 74%

Dew point: 43 °F

Location of VersoixLocation

Historic Weather in Versoix — Graph

°F

Versoix temperature yesterday

Maximum temperature yesterday: 76 °F (at 5:00 PM)
Minimum temperature yesterday: 43 °F (at 5:00 AM)
Average temperature yesterday: 60 °F

Past Weeks' High & Low Weather Summary

 TemperatureHumidityPressure
High77 °F (May 18, 4:00 PM)93% (May 26, 5:00 AM)30.33 "Hg (May 26, 5:00 AM)
Low43 °F (May 28, 5:00 AM)23% (May 28, 4:00 PM)29.75 "Hg (May 18, 6:00 PM)
Average57 °F61%30.05 "Hg
* Reported May 14 6:00 AM — May 29 5:00 AM, Versoix, Weather by CustomWeather, © 2015

Note: Actual official high and low records may vary slightly from our data, if they occured in-between our weather recording intervals... More about our weather records

Advertising

Versoix weather history for previous 24 hours

 ConditionsComfort  
Time TempWeatherWind HumidityBarometerVisibility
5:00 AM
Fri, May 29
51 °FPassing clouds.2 mph70%30.01 "Hg25 mi
4:00 AM51 °FCool.2 mph71%30.02 "HgN/A
3:00 AM49 °FCool.2 mph75%30.04 "HgN/A
2:00 AM49 °FPassing clouds.1 mph74%30.04 "Hg28 mi
12:00 AM54 °FCool.2 mph67%30.05 "HgN/A
10:00 PM
Thu, May 28
64 °FMild.5 mph39%30.01 "HgN/A
9:00 PM65 °FMild.3 mph37%29.99 "HgN/A
8:00 PM71 °FPartly sunny.6 mph30%29.97 "Hg28 mi
7:00 PM74 °FMild.9 mph26%29.96 "HgN/A
6:00 PM75 °FMild.12 mph28%29.96 "HgN/A
5:00 PM76 °FPartly sunny.7 mph28%29.97 "Hg28 mi
4:00 PM74 °FMild.8 mph23%29.99 "HgN/A
3:00 PM73 °FMild.6 mph31%30.01 "HgN/A
2:00 PM72 °FScattered clouds.7 mph30%30.03 "Hg28 mi
1:00 PM67 °FMild.2 mph41%30.06 "HgN/A
12:00 PM65 °FMild.5 mph46%30.08 "HgN/A
11:00 AM62 °FPassing clouds.3 mph48%30.11 "Hg28 mi
10:00 AM59 °FRefreshingly cool.2 mph60%30.13 "HgN/A
9:00 AM55 °FCool.2 mph60%30.14 "HgN/A
8:00 AM51 °FPassing clouds.2 mph70%30.15 "Hg28 mi
7:00 AM47 °FCool.1 mph81%30.17 "HgN/A
Weather by CustomWeather, © 2015

See weather overviewHow to use our weather pages